Location: Zagreb
(45.8000°N, 16.0000°E)
Time: 03:22:18
(UTC+01:00)

Courier 1B - Pass Details

Date: 10 October 2020
Orbit: 963 x 1209 km, 28.3° (Epoch: 25 October)

Event Time Altitude Azimuth Distance (km) Brightness Sun altitude
Rises 21:35:42 0° 245° (WSW) 4,009 11.1 -34.2°
Reaches altitude 10° 21:39:20 10° 229° (SW) 3,083 10.3 -34.7°
Enters shadow 21:41:48 16° 212° (SSW) 2,641 9.7 -35.1°
